Scottsdale, AZ

10:37 PM MST on March 28, 2017 (GMT -0700)
Scottsdale

Weather History for KSDL - October, 2012

Change the Weather History Date:

Wednesday, October 3, 2012

  Actual Average Record
Temperature  
Mean Temperature 85 °F -  
Max Temperature 98 °F 89 °F 98 °F (2012)
Min Temperature 72 °F 67 °F 52 °F (2002)
Cooling Degree Days 20    
Growing Degree Days 35 (Base 50)    
Moisture  
Dew Point 39 °F    
Average Humidity 21    
Maximum Humidity 33    
Minimum Humidity 10    
Precipitation  
Precipitation 0.00 in - - ()
Sea Level Pressure  
Sea Level Pressure 29.84 in    
Wind  
Wind Speed 2 mph (SE)    
Max Wind Speed 8 mph    
Max Gust Speed -    
Visibility 10 miles    
Events      
Averages and records for this station are not official NWS values.
T = Trace of Precipitation, MM = Missing Value Source: NWS Daily Summary

Daily Weather History Graph

Daily Weather History Graph

Search for Another Location

Airport or City:

Trip Planner

Search our weather history database for the weather conditions in past years. The results will help you decide how hot, cold, wet, or windy it might be!

Date:

Astronomy

Oct. 03, 2012 Rise Set
Actual Time 6:23 AM MST 6:08 PM MST
Civil Twilight 5:58 AM MST 6:33 PM MST
Nautical Twilight 5:30 AM MST 7:02 PM MST
Astronomical Twilight 5:01 AM MST 7:31 PM MST
Moon 8:15 PM MST (10/3) 9:38 AM MST (10/3)
Length of Visible Light 12h 34m
Length of Day
11h 44m
Waning Gibbous, 88% of the Moon is Illuminated
Oct 3
Waning Gibbous
Oct 8
Last Quarter
Oct 15
New
Oct 21
First Quarter
Oct 29
Full

Hourly Weather History & Observations

Time (MST) Temp. Dew Point Humidity Pressure Visibility Wind Dir Wind Speed Gust Speed Precip Events Conditions
12:53 AM 75.9 °F 37.9 °F 25% 29.78 in 10.0 mi Calm Calm - N/A   Clear
1:53 AM 73.9 °F 42.1 °F 32% 29.79 in 10.0 mi Calm Calm - N/A   Clear
2:53 AM 73.9 °F 43.0 °F 33% 29.80 in 10.0 mi Calm Calm - N/A   Clear
3:53 AM 73.0 °F 39.9 °F 30% 29.81 in 10.0 mi Calm Calm - N/A   Clear
4:53 AM 73.0 °F 41.0 °F 31% 29.82 in 10.0 mi Calm Calm - N/A   Clear
5:53 AM 72.0 °F 39.9 °F 31% 29.83 in 10.0 mi Calm Calm - N/A   Clear
6:53 AM 73.0 °F 39.0 °F 29% 29.85 in 10.0 mi Calm Calm - N/A   Clear
7:53 AM 78.1 °F 39.0 °F 25% 29.87 in 10.0 mi Calm Calm - N/A   Clear
8:53 AM 82.0 °F 43.0 °F 25% 29.89 in 10.0 mi Variable 3.5 mph - N/A   Clear
9:53 AM 88.0 °F 37.9 °F 17% 29.90 in 10.0 mi SSE 5.8 mph - N/A   Clear
10:53 AM 90.0 °F 39.9 °F 17% 29.90 in 10.0 mi Variable 6.9 mph - N/A   Clear
11:53 AM 93.0 °F 41.0 °F 16% 29.89 in 10.0 mi South 8.1 mph - N/A   Clear
1:53 PM 96.1 °F 37.9 °F 13% 29.85 in 10.0 mi East 5.8 mph - N/A   Clear
2:53 PM 98.1 °F 36.0 °F 11% 29.83 in 10.0 mi Calm Calm - N/A   Clear
3:53 PM 98.1 °F 33.1 °F 10% 29.82 in 10.0 mi WSW 6.9 mph - N/A   Clear
4:53 PM 98.1 °F 34.0 °F 11% 29.82 in 10.0 mi WSW 6.9 mph - N/A   Clear
5:53 PM 96.1 °F 36.0 °F 12% 29.82 in 10.0 mi Calm Calm - N/A   Clear
6:53 PM 91.9 °F 39.0 °F 16% 29.83 in 10.0 mi Calm Calm - N/A   Clear
7:53 PM 89.1 °F 39.9 °F 18% 29.84 in 10.0 mi NE 3.5 mph - N/A   Clear
8:53 PM 86.0 °F 41.0 °F 20% 29.86 in 10.0 mi Calm Calm - N/A   Clear
9:53 PM 84.0 °F 41.0 °F 22% 29.87 in 10.0 mi Calm Calm - N/A   Clear
10:53 PM 82.9 °F 41.0 °F 23% 29.88 in 10.0 mi NE 4.6 mph - N/A   Clear
11:53 PM 82.0 °F 41.0 °F 23% 29.88 in 10.0 mi Calm Calm - N/A   Clear